Location: Vaughan
(31.9146°N, 97.1736°W)
Time: 17:21:08
(UTC+00:00)

PSLV R/B - Visible Passes

Search period start: 14 March 2026 00:00
Search period end: 24 March 2026 00:00
Orbit: 559 x 587 km, 98.0° (Epoch: 14 March)

Date Brightness Start Highest point End Pass type
(mag) Time Alt. Az. Time Alt. Az. Time Alt. Az.
14 Mar 3.7 01:38:37 10° S 01:42:36 66° W 01:46:35 10° NNW visible
15 Mar 3.9 01:41:29 10° S 01:45:25 60° W 01:49:23 10° NNW visible
16 Mar 4.1 01:44:20 10° S 01:48:15 55° W 01:52:11 10° NNW visible
17 Mar 4.3 01:47:11 10° S 01:51:03 50° W 01:54:58 10° NNW visible
18 Mar 4.4 01:50:02 10° S 01:53:53 46° W 01:57:45 10° NNW visible
19 Mar 4.6 01:52:54 10° S 01:56:42 42° W 02:00:30 10° NNW visible
20 Mar 4.8 01:55:45 10° S 01:59:29 39° W 02:03:15 10° NNW visible
21 Mar 4.9 01:58:37 10° SSW 02:02:18 36° W 02:06:00 10° NNW visible
22 Mar 5.1 02:01:28 10° SSW 02:05:05 33° W 02:08:44 10° NNW visible
23 Mar 5.3 02:04:20 10° SSW 02:07:52 31° W 02:11:27 10° NW visible
